CW3008 Weather Reports


time (UTC)temp
C
wind
direction
speed
KPH
gust
KPH
rain 1hr
cm
rain 24hr
cm
rain mn
cm
humidity
%
barometer
mb
20260508014525 11 131 0.0 0.0 0.00 0.20 0.20 45 1006.1
20260508013026 11 131 0.0 0.0 0.00 0.20 0.20 47 1005.8
20260508011524 11 131 0.0 0.0 0.00 0.20 0.20 47 1005.7
20260508010028 12 131 0.0 0.0 0.00 0.20 0.20 46 1005.3
20260508004534 12 131 0.0 0.0 0.00 0.20 0.20 44 1005.2
20260508003020 12 131 0.0 0.0 0.00 0.20 0.20 43 1005.0
20260508001519 13 131 0.0 0.0 0.00 0.20 0.20 42 1004.9
20260508000019 13 131 0.0 0.0 0.00 0.23 0.20 41 1004.7
20260507234524 14 131 0.0 0.0 0.00 0.23 0.20 41 1004.6
20260507233024 14 131 0.0 0.0 0.00 0.23 0.20 40 1004.6
20260507231516 15 131 0.0 0.0 0.00 0.23 0.20 44 1004.3
20260507230014 15 131 0.0 0.0 0.00 0.23 0.20 40 1004.1
20260507224518 16 352 0.0 0.0 0.00 0.23 0.20 39 1004.1
20260507223014 16 339 0.0 0.0 0.00 0.23 0.20 37 1004.0
20260507221511 16 346 0.0 0.0 0.00 0.23 0.20 36 1003.8
20260507220009 16 340 0.0 0.0 0.00 0.23 0.20 35 1003.8
20260507214515 17 343 0.0 0.0 0.00 0.23 0.20 37 1003.6
20260507213008 17 293 0.0 0.0 0.00 0.23 0.20 33 1003.6
20260507211509 17 321 0.0 0.0 0.00 0.23 0.20 32 1003.5
20260507210038 17 7 0.0 0.0 0.00 0.23 0.20 34 1003.5
20260507204535 17 350 0.0 0.0 0.00 0.23 0.20 30 1003.6
20260507203007 18 340 0.0 0.0 0.00 0.23 0.20 30 1003.5
20260507201512 18 335 0.0 0.0 0.00 0.23 0.20 30 1003.4
20260507200003 18 346 0.0 0.0 0.00 0.23 0.20 33 1003.5
20260507194600 18 352 0.0 0.0 0.00 0.23 0.20 31 1003.6
20260507193101 18 343 0.0 0.0 0.00 0.23 0.20 32 1003.7
20260507191558 18 330 0.0 0.0 0.00 0.23 0.20 31 1003.9
20260507190053 18 358 0.0 0.0 0.00 0.23 0.20 32 1003.9
20260507184550 18 345 0.0 0.0 0.00 0.23 0.20 35 1004.0
20260507183047 16 280 0.0 0.0 0.00 0.23 0.20 51 1004.3
20260507181546 14 136 0.0 0.0 0.00 0.23 0.20 58 1004.5
20260507180014 14 142 0.0 0.0 0.00 0.23 0.20 59 1004.5
20260507174536 13 115 0.0 0.0 0.00 0.23 0.20 61 1004.5
20260507173043 13 144 0.0 0.0 0.00 0.23 0.20 62 1004.6
20260507171559 13 131 0.0 0.0 0.00 0.23 0.20 60 1004.8
20260507170040 13 112 0.0 0.0 0.00 0.23 0.20 60 1004.7
20260507164539 13 166 0.0 0.0 0.00 0.23 0.20 61 1005.0
20260507163038 13 131 0.0 0.0 0.00 0.23 0.20 60 1005.2
20260507161542 14 207 0.0 0.0 0.00 0.23 0.20 57 1005.4
20260507160008 15 279 0.0 0.0 0.00 0.23 0.20 55 1005.4
20260507154508 15 223 0.0 0.0 0.00 0.23 0.20 59 1005.6
20260507153036 15 152 0.0 0.0 0.00 0.23 0.20 57 1005.7
20260507151534 18 20 0.0 0.0 0.00 0.23 0.20 48 1005.8
20260507150036 17 40 0.0 0.0 0.00 0.23 0.20 50 1005.9
20260507144529 17 32 0.0 0.0 0.00 0.23 0.20 51 1006.0
20260507143027 17 40 0.0 0.0 0.00 0.23 0.20 52 1006.2
20260507141525 17 350 0.0 0.0 0.00 0.23 0.20 52 1006.2
20260507140034 17 346 0.0 0.0 0.00 0.23 0.20 55 1006.2
20260507134518 16 348 0.0 0.0 0.00 0.23 0.20 57 1006.3
20260507133012 16 348 0.0 0.0 0.00 0.23 0.20 65 1006.4
20260507131512 14 348 0.0 0.0 0.00 0.23 0.20 71 1006.7
20260507130004 12 348 0.0 0.0 0.00 0.23 0.20 79 1006.8
20260507124503 11 348 0.0 0.0 0.00 0.23 0.20 84 1006.7
20260507123106 10 358 0.0 0.0 0.00 0.23 0.20 85 1006.6
20260507123001 10 358 0.0 0.0 0.00 0.23 0.20 85 1006.7
20260507121601 9 131 0.0 0.0 0.00 0.23 0.20 87 1006.5
20260507120057 9 131 0.0 0.0 0.00 0.23 0.20 88 1006.6
20260507114556 9 131 0.0 0.0 0.00 0.23 0.20 88 1006.4
20260507113128 8 131 0.0 0.0 0.00 0.23 0.20 89 1006.4
20260507111555 8 131 0.0 0.0 0.03 0.23 0.20 90 1006.2
20260507110052 8 131 0.0 0.0 0.03 0.23 0.20 89 1006.4
20260507104600 8 131 0.0 0.0 0.05 0.23 0.20 89 1006.4
20260507103048 8 131 0.0 0.0 0.10 0.23 0.20 89 1006.2
20260507101553 8 131 0.0 0.0 0.13 0.20 0.18 88 1006.1
20260507100055 8 131 0.0 0.0 0.10 0.18 0.15 87 1005.9
20260507094543 9 131 0.0 0.0 0.10 0.18 0.15 86 1005.8
20260507093040 9 131 0.0 0.0 0.08 0.13 0.10 85 1005.8
20260507091542 10 131 0.0 0.0 0.03 0.08 0.05 85 1005.9
20260507090036 10 131 0.0 0.0 0.03 0.08 0.05 85 1005.8
20260507084545 10 131 0.0 0.0 0.05 0.08 0.05 85 1005.4
20260507083029 10 131 0.0 0.0 0.03 0.05 0.03 84 1005.0
20260507081526 10 131 0.0 0.0 0.03 0.05 0.03 84 1005.4
20260507080024 11 131 0.0 0.0 0.03 0.05 0.03 82 1005.3
20260507074519 11 131 0.0 0.0 0.00 0.03 0.00 83 1005.0
20260507073023 11 340 0.0 0.0 0.00 0.03 0.00 82 1004.9
20260507071518 11 327 0.0 0.0 0.00 0.03 0.00 83 1004.8
20260507070020 11 332 0.0 0.0 0.00 0.03 0.00 86 1004.9
20260507064547 11 350 0.0 0.0 0.00 0.03 0.00 88 1004.8
20260507063050 11 352 0.0 0.0 0.00 0.03 0.00 88 1004.4
20260507061513 11 352 0.0 0.0 0.00 0.03 0.00 89 1004.9
20260507060010 11 352 0.0 0.0 0.00 0.03 0.00 90 1004.8
20260507054506 12 131 0.0 0.0 0.00 0.03 0.00 91 1004.9
20260507053005 12 131 0.0 0.0 0.00 0.03 0.00 91 1004.5
20260507051607 13 131 0.0 0.0 0.00 0.03 0.00 92 1004.8
20260507050110 13 333 0.0 0.0 0.00 0.03 0.00 93 1004.6
20260507044557 13 320 0.0 0.0 0.00 0.03 0.00 93 1004.4
20260507043053 13 131 0.0 0.0 0.00 0.03 0.00 93 1004.5
20260507041552 13 131 0.0 0.0 0.00 0.03 0.00 93 1004.8
20260507040149 13 257 0.0 0.0 0.00 0.03 0.00 93 1004.7
20260507034547 13 131 0.0 0.0 0.00 0.03 0.03 93 1004.7
20260507033048 13 131 0.0 0.0 0.00 0.03 0.03 93 1004.3
20260507031545 13 131 0.0 0.0 0.00 0.03 0.03 93 1004.0
20260507030046 13 131 0.0 0.0 0.00 0.03 0.03 93 1004.1
20260507024545 13 131 0.0 0.0 0.00 0.03 0.03 92 1004.3
20260507023039 13 131 0.0 0.0 0.00 0.03 0.03 92 1004.3
20260507021550 13 131 0.0 0.0 0.00 0.03 0.03 92 1004.2
20260507020037 13 131 0.0 0.0 0.00 0.03 0.03 92 1004.4